Time,TemperatureF,DewpointF,PressureIn,WindDirection,WindDirectionDegrees,WindSpeedMPH,WindSpeedGustMPH,Humidity,HourlyPrecipIn,Conditions,Clouds,dailyrainin,SoftwareType,DateUTC
2013-02-27 00:06:00,42.8,39.0,30.65,ENE,77,1.0,1.0,86,0.00,,,0.00,weatherlink.com 1.10,2013-02-27 00:06:00,
2013-02-27 00:21:00,42.8,39.0,30.65,East,86,1.0,2.0,86,0.00,,,0.00,weatherlink.com 1.10,2013-02-27 00:21:00,
2013-02-27 00:36:00,42.8,39.0,30.65,ENE,73,0.0,3.0,86,0.00,,,0.00,weatherlink.com 1.10,2013-02-27 00:36:00,
2013-02-27 00:51:00,42.8,39.0,30.65,ENE,72,2.0,5.0,86,0.00,,,0.00,weatherlink.com 1.10,2013-02-27 00:51:00,
2013-02-27 01:06:00,42.8,39.0,30.65,ENE,77,1.0,2.0,86,0.00,,,0.00,weatherlink.com 1.10,2013-02-27 01:06:00,
2013-02-27 01:21:00,42.8,39.0,30.65,NE,47,1.0,3.0,86,0.00,,,0.00,weatherlink.com 1.10,2013-02-27 01:21:00,
2013-02-27 01:36:00,42.8,39.0,30.65,ENE,71,0.0,1.0,86,0.00,,,0.00,weatherlink.com 1.10,2013-02-27 01:36:00,
2013-02-27 01:51:00,42.8,39.0,30.64,ENE,65,0.0,1.0,86,0.00,,,0.00,weatherlink.com 1.10,2013-02-27 01:51:00,
2013-02-27 02:06:00,42.9,39.0,30.64,ENE,70,0.0,2.0,87,0.00,,,0.00,weatherlink.com 1.10,2013-02-27 02:06:00,
2013-02-27 02:21:00,42.9,39.0,30.64,NE,36,1.0,1.0,87,0.00,,,0.00,weatherlink.com 1.10,2013-02-27 02:21:00,
2013-02-27 02:36:00,42.9,39.0,30.64,ENE,61,2.0,2.0,87,0.00,,,0.00,weatherlink.com 1.10,2013-02-27 02:36:00,
2013-02-27 02:51:00,43.0,39.0,30.64,ENE,65,1.0,3.0,87,0.00,,,0.00,weatherlink.com 1.10,2013-02-27 02:51:00,
2013-02-27 03:06:00,42.8,39.0,30.64,ENE,72,1.0,3.0,87,0.00,,,0.00,weatherlink.com 1.10,2013-02-27 03:06:00,
2013-02-27 03:21:00,42.7,39.0,30.64,ENE,65,4.0,4.0,87,0.00,,,0.00,weatherlink.com 1.10,2013-02-27 03:21:00,
2013-02-27 03:36:00,42.4,39.0,30.64,East,82,5.0,6.0,86,0.00,,,0.00,weatherlink.com 1.10,2013-02-27 03:36:00,
2013-02-27 03:51:00,42.3,39.0,30.64,ENE,77,5.0,5.0,87,0.00,,,0.00,weatherlink.com 1.10,2013-02-27 03:51:00,
2013-02-27 04:06:00,42.1,39.0,30.64,ENE,68,4.0,6.0,87,0.00,,,0.00,weatherlink.com 1.10,2013-02-27 04:06:00,
2013-02-27 04:21:00,41.9,38.0,30.64,East,82,1.0,5.0,87,0.00,,,0.00,weatherlink.com 1.10,2013-02-27 04:21:00,
2013-02-27 04:36:00,41.9,38.0,30.64,NE,56,2.0,6.0,87,0.00,,,0.00,weatherlink.com 1.10,2013-02-27 04:36:00,
2013-02-27 04:52:00,41.7,38.0,30.64,ENE,71,4.0,6.0,87,0.00,,,0.00,weatherlink.com 1.10,2013-02-27 04:52:00,
2013-02-27 05:07:00,41.6,38.0,30.65,East,81,3.0,5.0,88,0.00,,,0.00,weatherlink.com 1.10,2013-02-27 05:07:00,
2013-02-27 05:22:00,41.6,38.0,30.65,ENE,67,3.0,7.0,88,0.00,,,0.00,weatherlink.com 1.10,2013-02-27 05:22:00,
2013-02-27 05:37:00,41.5,38.0,30.65,East,79,3.0,6.0,88,0.00,,,0.00,weatherlink.com 1.10,2013-02-27 05:37:00,
2013-02-27 05:52:00,41.3,38.0,30.65,East,91,4.0,5.0,87,0.00,,,0.00,weatherlink.com 1.10,2013-02-27 05:52:00,
2013-02-27 06:07:00,41.4,38.0,30.65,ENE,77,2.0,4.0,87,0.00,,,0.00,weatherlink.com 1.10,2013-02-27 06:07:00,
2013-02-27 06:22:00,41.5,38.0,30.66,East,79,3.0,3.0,87,0.00,,,0.00,weatherlink.com 1.10,2013-02-27 06:22:00,
2013-02-27 06:37:00,41.5,37.0,30.66,East,85,2.0,4.0,85,0.00,,,0.00,weatherlink.com 1.10,2013-02-27 06:37:00,
2013-02-27 06:52:00,41.6,37.0,30.66,ENE,65,1.0,2.0,85,0.00,,,0.00,weatherlink.com 1.10,2013-02-27 06:52:00,
2013-02-27 07:07:00,41.6,37.0,30.66,NE,55,3.0,4.0,85,0.00,,,0.00,weatherlink.com 1.10,2013-02-27 07:07:00,
2013-02-27 07:22:00,41.4,37.0,30.66,East,91,4.0,6.0,84,0.00,,,0.00,weatherlink.com 1.10,2013-02-27 07:22:00,
2013-02-27 07:37:00,41.3,37.0,30.66,NE,55,2.0,7.0,83,0.00,,,0.00,weatherlink.com 1.10,2013-02-27 07:37:00,
2013-02-27 07:52:00,41.4,37.0,30.66,NE,49,2.0,5.0,83,0.00,,,0.00,weatherlink.com 1.10,2013-02-27 07:52:00,
2013-02-27 08:07:00,41.4,37.0,30.66,East,79,2.0,7.0,83,0.00,,,0.00,weatherlink.com 1.10,2013-02-27 08:07:00,
2013-02-27 08:22:00,41.6,37.0,30.66,East,88,3.0,4.0,83,0.00,,,0.00,weatherlink.com 1.10,2013-02-27 08:22:00,
2013-02-27 08:37:00,41.7,37.0,30.67,NNW,330,3.0,5.0,83,0.00,,,0.00,weatherlink.com 1.10,2013-02-27 08:37:00,
2013-02-27 08:52:00,41.5,36.0,30.66,NNE,24,6.0,10.0,82,0.00,,,0.00,weatherlink.com 1.10,2013-02-27 08:52:00,
2013-02-27 09:07:00,41.5,36.0,30.66,ENE,60,4.0,6.0,82,0.00,,,0.00,weatherlink.com 1.10,2013-02-27 09:07:00,
2013-02-27 09:22:00,41.5,36.0,30.67,NNE,30,2.0,9.0,82,0.00,,,0.00,weatherlink.com 1.10,2013-02-27 09:22:00,
2013-02-27 09:37:00,41.5,36.0,30.67,NE,52,3.0,7.0,82,0.00,,,0.00,weatherlink.com 1.10,2013-02-27 09:37:00,
2013-02-27 09:52:00,41.5,36.0,30.67,NE,43,3.0,9.0,81,0.00,,,0.00,weatherlink.com 1.10,2013-02-27 09:52:00,
2013-02-27 10:07:00,41.6,36.0,30.67,NNE,15,3.0,8.0,81,0.00,,,0.00,weatherlink.com 1.10,2013-02-27 10:07:00,
2013-02-27 10:22:00,41.8,36.0,30.66,ENE,77,4.0,8.0,80,0.00,,,0.00,weatherlink.com 1.10,2013-02-27 10:22:00,
2013-02-27 10:37:00,42.5,36.0,30.66,ENE,77,3.0,8.0,79,0.00,,,0.00,weatherlink.com 1.10,2013-02-27 10:37:00,
2013-02-27 10:52:00,42.5,36.0,30.66,East,84,2.0,9.0,79,0.00,,,0.00,weatherlink.com 1.10,2013-02-27 10:52:00,
2013-02-27 11:07:00,42.8,37.0,30.66,ENE,72,3.0,6.0,79,0.00,,,0.00,weatherlink.com 1.10,2013-02-27 11:07:00,
2013-02-27 11:22:00,43.2,37.0,30.65,East,79,3.0,7.0,79,0.00,,,0.00,weatherlink.com 1.10,2013-02-27 11:22:00,
2013-02-27 11:37:00,43.3,38.0,30.65,ENE,72,10.0,10.0,81,0.00,,,0.00,weatherlink.com 1.10,2013-02-27 11:37:00,
2013-02-27 11:52:00,43.5,38.0,30.65,East,85,5.0,12.0,80,0.00,,,0.00,weatherlink.com 1.10,2013-02-27 11:52:00,
2013-02-27 12:07:00,43.5,38.0,30.64,ENE,63,5.0,7.0,80,0.00,,,0.00,weatherlink.com 1.10,2013-02-27 12:07:00,
2013-02-27 12:22:00,43.9,38.0,30.64,ENE,66,9.0,11.0,81,0.00,,,0.00,weatherlink.com 1.10,2013-02-27 12:22:00,
2013-02-27 12:37:00,43.7,38.0,30.64,ENE,65,5.0,8.0,80,0.00,,,0.00,weatherlink.com 1.10,2013-02-27 12:37:00,
2013-02-27 12:52:00,44.1,38.0,30.63,NNE,29,3.0,7.0,80,0.00,,,0.00,weatherlink.com 1.10,2013-02-27 12:52:00,
2013-02-27 13:07:00,44.0,38.0,30.63,NE,50,3.0,8.0,80,0.00,,,0.00,weatherlink.com 1.10,2013-02-27 13:07:00,
2013-02-27 13:22:00,43.7,38.0,30.63,ENE,58,3.0,11.0,79,0.00,,,0.00,weatherlink.com 1.10,2013-02-27 13:22:00,
2013-02-27 13:37:00,43.5,37.0,30.63,ENE,67,3.0,9.0,79,0.00,,,0.00,weatherlink.com 1.10,2013-02-27 13:37:00,
2013-02-27 13:53:00,43.9,38.0,30.62,East,86,6.0,6.0,79,0.00,,,0.00,weatherlink.com 1.10,2013-02-27 13:53:00,
2013-02-27 14:08:00,43.9,38.0,30.62,ENE,58,4.0,7.0,79,0.00,,,0.00,weatherlink.com 1.10,2013-02-27 14:08:00,
2013-02-27 14:23:00,44.1,38.0,30.62,NE,56,3.0,8.0,79,0.00,,,0.00,weatherlink.com 1.10,2013-02-27 14:23:00,
2013-02-27 14:38:00,44.4,38.0,30.62,NE,56,4.0,9.0,78,0.00,,,0.00,weatherlink.com 1.10,2013-02-27 14:38:00,
2013-02-27 14:53:00,44.3,38.0,30.61,NNE,27,5.0,8.0,79,0.00,,,0.00,weatherlink.com 1.10,2013-02-27 14:53:00,
2013-02-27 15:08:00,44.4,39.0,30.61,NNW,338,3.0,6.0,80,0.00,,,0.00,weatherlink.com 1.10,2013-02-27 15:08:00,
2013-02-27 15:23:00,43.7,38.0,30.61,ENE,77,3.0,8.0,81,0.00,,,0.00,weatherlink.com 1.10,2013-02-27 15:23:00,
2013-02-27 15:38:00,43.7,38.0,30.61,ENE,75,4.0,6.0,80,0.00,,,0.00,weatherlink.com 1.10,2013-02-27 15:38:00,
2013-02-27 15:53:00,43.7,38.0,30.60,ENE,60,3.0,6.0,80,0.00,,,0.00,weatherlink.com 1.10,2013-02-27 15:53:00,
2013-02-27 16:08:00,43.7,38.0,30.60,NNE,22,3.0,6.0,80,0.00,,,0.00,weatherlink.com 1.10,2013-02-27 16:08:00,
2013-02-27 16:23:00,43.4,38.0,30.60,ENE,70,6.0,6.0,80,0.00,,,0.00,weatherlink.com 1.10,2013-02-27 16:23:00,
2013-02-27 16:38:00,43.1,37.0,30.60,North,350,3.0,7.0,80,0.00,,,0.00,weatherlink.com 1.10,2013-02-27 16:38:00,
2013-02-27 16:53:00,42.9,37.0,30.60,East,91,3.0,6.0,80,0.00,,,0.00,weatherlink.com 1.10,2013-02-27 16:53:00,
2013-02-27 17:08:00,42.7,37.0,30.60,ENE,70,2.0,6.0,81,0.00,,,0.00,weatherlink.com 1.10,2013-02-27 17:08:00,
2013-02-27 17:23:00,42.4,37.0,30.60,ENE,64,1.0,8.0,82,0.00,,,0.00,weatherlink.com 1.10,2013-02-27 17:23:00,
2013-02-27 17:38:00,42.2,37.0,30.60,ENE,71,4.0,5.0,82,0.00,,,0.00,weatherlink.com 1.10,2013-02-27 17:38:00,
2013-02-27 17:53:00,41.9,37.0,30.60,NNE,20,1.0,-999.0,82,-99.99,,,0.00,weatherlink.com 1.10,2013-02-27 17:53:00,
2013-02-27 18:08:00,41.7,37.0,30.60,ENE,69,1.0,5.0,82,0.00,,,0.00,weatherlink.com 1.10,2013-02-27 18:08:00,
2013-02-27 18:23:00,41.4,36.0,30.61,North,354,1.0,4.0,82,0.00,,,0.00,weatherlink.com 1.10,2013-02-27 18:23:00,
2013-02-27 18:38:00,41.1,36.0,30.61,NE,39,1.0,4.0,83,0.00,,,0.00,weatherlink.com 1.10,2013-02-27 18:38:00,
2013-02-27 18:53:00,40.9,36.0,30.61,NNW,342,2.0,5.0,83,0.00,,,0.00,weatherlink.com 1.10,2013-02-27 18:53:00,
2013-02-27 19:08:00,40.9,36.0,30.62,NE,48,4.0,4.0,84,0.00,,,0.00,weatherlink.com 1.10,2013-02-27 19:08:00,
2013-02-27 19:23:00,41.0,37.0,30.62,NNE,12,2.0,4.0,84,0.00,,,0.00,weatherlink.com 1.10,2013-02-27 19:23:00,
2013-02-27 19:38:00,41.0,37.0,30.62,NE,51,0.0,4.0,84,0.00,,,0.00,weatherlink.com 1.10,2013-02-27 19:38:00,
2013-02-27 19:53:00,40.9,36.0,30.62,NNW,340,2.0,5.0,84,0.00,,,0.00,weatherlink.com 1.10,2013-02-27 19:53:00,
2013-02-27 20:08:00,40.6,36.0,30.62,NNW,334,1.0,3.0,84,0.00,,,0.00,weatherlink.com 1.10,2013-02-27 20:08:00,
2013-02-27 20:23:00,40.4,36.0,30.62,NNE,24,2.0,3.0,85,0.00,,,0.00,weatherlink.com 1.10,2013-02-27 20:23:00,
2013-02-27 20:38:00,40.2,36.0,30.62,NNW,342,1.0,4.0,85,0.00,,,0.00,weatherlink.com 1.10,2013-02-27 20:38:00,
2013-02-27 20:53:00,40.1,36.0,30.62,NNW,338,0.0,3.0,86,0.00,,,0.00,weatherlink.com 1.10,2013-02-27 20:53:00,
2013-02-27 21:08:00,40.0,36.0,30.62,NW,311,0.0,3.0,86,0.00,,,0.00,weatherlink.com 1.10,2013-02-27 21:08:00,
2013-02-27 21:23:00,39.9,36.0,30.62,WNW,295,1.0,2.0,86,0.00,,,0.00,weatherlink.com 1.10,2013-02-27 21:23:00,
2013-02-27 21:38:00,39.9,36.0,30.62,NNW,338,1.0,3.0,87,0.00,,,0.00,weatherlink.com 1.10,2013-02-27 21:38:00,
2013-02-27 21:53:00,39.9,36.0,30.62,NNW,333,2.0,4.0,87,0.00,,,0.00,weatherlink.com 1.10,2013-02-27 21:53:00,
2013-02-27 22:08:00,39.8,36.0,30.62,NNW,331,0.0,2.0,87,0.00,,,0.00,weatherlink.com 1.10,2013-02-27 22:08:00,
2013-02-27 22:23:00,39.9,36.0,30.62,WNW,302,0.0,2.0,87,0.00,,,0.00,weatherlink.com 1.10,2013-02-27 22:23:00,
2013-02-27 22:38:00,39.8,36.0,30.62,WNW,297,1.0,3.0,87,0.00,,,0.00,weatherlink.com 1.10,2013-02-27 22:38:00,
2013-02-27 22:53:00,39.8,36.0,30.62,WNW,301,0.0,3.0,87,0.00,,,0.00,weatherlink.com 1.10,2013-02-27 22:53:00,
2013-02-27 23:08:00,39.7,36.0,30.62,NNW,334,0.0,2.0,87,0.00,,,0.00,weatherlink.com 1.10,2013-02-27 23:08:00,
2013-02-27 23:23:00,39.7,37.0,30.62,East,99,0.0,2.0,88,0.00,,,0.00,weatherlink.com 1.10,2013-02-27 23:23:00,
2013-02-27 23:38:00,39.7,37.0,30.62,NNW,331,0.0,2.0,88,0.00,,,0.00,weatherlink.com 1.10,2013-02-27 23:38:00,
2013-02-27 23:53:00,39.7,37.0,30.62,West,264,0.0,2.0,88,0.00,,,0.00,weatherlink.com 1.10,2013-02-27 23:53:00,